{"data":{"norad_id":68486,"intl_designator":"2026-067BY","name":"VINDLER 2.3","alt_names":[],"object_type":"PAYLOAD","status":"ACTIVE","operator":null,"country":"US","launch_date":"2026-03-30","launch_site_code":"AFWTR","launch_vehicle":null,"mission":null,"orbit_class":"UNKNOWN","rcs_meters":null,"size_class":null,"mass_kg":null,"dimensions":null,"purposes":[],"wikipedia_slug":null,"has_3d_model":false,"image_url":null,"decayed_at":null,"tle_current":{"epoch":"2026-05-24T20:05:01.613472Z","epoch_age_seconds":88806,"freshness":"FRESH","line1":"1 68486U 26067BY  26144.83682423  .00001636  00000+0  16738-3 0  9999","line2":"2 68486  97.7568 103.4485 0002475  69.9922 290.1564 14.91882062  8248","mean_motion":14.91882062,"eccentricity":0.0002475,"inclination_deg":97.7568,"raan_deg":103.4485,"arg_perigee_deg":69.9922,"mean_anomaly_deg":290.1564,"bstar":0.00016738,"rev_number":824,"period_min":96.522375104474,"perigee_km":590.34226376833,"apogee_km":593.79251494106,"semimajor_km":6970.2043893547,"source":"CELESTRAK","updated_at":"2026-05-25T13:38:07.871915Z"}}}